Wind_Speed
98 97 91 84 81 75 70 60 55 52 44 39 42 45 49 55 63 68 74 81 84 83 80 81 82 84 86 85 87 87 86 87 87 84 81 77 76 76 74 73 71 73 75 65 63 62 64
102 101 96 88 85 80 73 67 55 49 47 42 40 44 47 48 54 61 68 76 82 84 85 83 85 84 80 85 84 87 85 85 85 85 87 83 80 77 75 72 72 75 76 73 65 63 64
105 106 104 96 92 86 78 70 64 55 44 44 43 45 48 50 51 51 58 67 74 79 82 83 86 90 84 80 78 83 89 88 89 88 85 85 87 85 84 81 78 79 79 76 70 66 61
109 109 107 97 95 89 82 76 68 61 53 43 46 50 51 52 54 53 51 58 67 72 75 78 81 89 89 85 81 83 80 89 93 91 88 85 84 85 85 82 82 80 78 76 71 70 66
112 113 110 102 99 91 84 75 67 62 59 57 53 52 57 57 58 58 54 53 58 67 73 75 77 83 89 87 85 78 80 83 84 89 92 88 87 84 86 85 83 82 79 77 73 73 68
115 116 113 107 103 97 88 79 72 63 59 61 66 66 60 62 63 62 61 57 58 60 65 71 73 77 85 91 90 84 82 79 81 81 88 89 89 87 85 84 85 85 81 81 79 77 77
118 118 115 111 106 101 92 82 74 66 60 54 55 61 59 58 64 69 67 65 62 51 52 64 75 77 81 87 92 89 83 77 78 79 80 90 89 89 90 87 85 84 83 81 81 81 79
121 122 120 115 110 104 97 90 79 72 63 55 52 49 50 50 55 64 73 73 56 55 65 63 71 73 81 83 82 81 79 76 76 78 81 84 91 90 87 86 84 83 83 83 82 82 79
122 125 121 116 112 108 99 90 79 71 63 57 52 47 44 44 47 51 68 77 64 61 61 57 61 63 68 74 75 75 74 72 72 73 75 81 87 89 87 85 84 83 82 82 80 78 78
124 126 122 117 111 108 99 89 79 70 62 54 48 41 38 39 41 44 58 75 71 62 59 57 54 57 62 62 65 66 67 68 67 68 69 72 80 84 84 83 85 84 83 83 82 82 81
127 127 123 118 110 107 99 88 78 69 58 49 42 34 27 30 38 44 52 66 72 66 61 56 50 49 54 55 56 58 58 58 59 61 66 69 77 82 83 86 84 83 82 83 84 84 82
129 129 124 117 110 107 97 86 77 66 54 45 35 26 20 26 36 42 52 66 74 70 57 48 46 46 47 46 49 50 49 50 56 59 64 66 70 77 81 83 83 83 83 85 85 86 83
130 129 123 115 108 105 94 84 74 63 51 41 30 19 17 25 33 41 49 67 75 55 47 45 45 44 44 44 44 44 45 46 49 54 58 63 68 72 75 79 80 81 83 85 86 87 86
131 129 122 113 108 101 91 83 71 60 47 38 27 15 10 22 32 39 53 65 56 42 44 43 46 44 42 42 41 42 41 42 44 48 55 56 63 68 74 77 79 81 81 85 88 91 92
130 127 119 110 107 99 87 78 67 54 43 34 21 8 5 20 29 38 47 52 45 47 43 44 44 42 40 40 41 40 40 42 45 49 52 56 62 69 73 76 79 80 79 73 70 73 76
128 125 114 107 105 98 86 76 64 48 40 31 19 6 8 19 26 34 36 38 45 46 43 44 42 43 42 42 40 39 38 40 42 41 39 39 36 35 36 39 40 40 48 58 66 70 79
128 121 110 105 102 94 83 74 63 47 38 30 19 6 8 14 24 33 44 47 46 40 40 44 43 40 39 36 33 33 32 31 27 24 23 22 22 29 25 27 34 42 51 59 68 75 83
123 117 105 100 99 89 81 72 60 45 36 29 18 7 10 15 25 42 48 45 42 41 43 43 43 40 36 31 31 26 25 24 23 20 17 18 20 20 23 31 38 46 49 51 54 60 61
118 111 102 97 95 85 77 70 59 44 34 27 13 10 12 13 23 42 46 45 40 40 41 43 44 41 35 28 27 25 23 20 18 16 15 17 17 21 28 33 31 34 30 28 33 31 38
111 106 100 95 90 80 73 67 57 43 33 26 16 9 16 20 30 39 47 43 37 36 41 43 44 40 35 28 27 25 23 20 17 15 16 17 20 22 24 18 8 17 29 35 24 23 23
104 101 97 91 85 76 70 65 54 41 32 26 19 5 15 27 36 40 42 42 37 38 43 45 45 42 37 33 27 25 23 20 17 17 17 16 20 16 10 5 7 15 24 30 39 31 28
96 96 95 89 81 70 67 62 51 41 31 26 18 4 13 24 40 42 43 40 38 39 43 45 43 40 37 33 28 27 24 21 19 17 16 17 12 6 6 6 6 12 18 28 33 40 37
90 91 92 88 79 64 60 58 49 40 31 23 18 6 12 23 39 45 44 40 39 38 40 43 44 41 38 34 32 29 27 22 18 15 15 7 7 8 9 5 11 19 22 27 30 32 40
85 86 89 85 79 67 55 56 53 41 30 22 14 7 6 18 35 46 44 44 41 38 37 39 40 41 40 39 36 32 26 21 17 14 10 3 9 7 12 7 5 13 18 22 29 33 40
81 81 84 81 74 69 58 53 51 44 33 24 14 5 4 17 30 47 51 50 47 43 39 38 38 37 39 37 33 29 25 19 17 15 12 6 11 7 5 10 6 3 10 22 25 28 36
76 76 77 77 69 66 59 55 48 44 35 25 17 6 4 12 30 46 52 53 49 46 42 39 38 37 35 33 31 28 23 19 15 9 10 10 9 10 13 14 8 5 10 17 17 26 28
72 72 71 70 66 63 58 55 50 44 37 29 18 11 4 11 24 40 52 54 54 49 46 42 39 38 36 33 31 28 23 18 15 13 9 10 12 11 16 12 12 7 5 10 11 18 26
69 67 66 65 60 58 59 54 52 46 38 30 22 14 9 11 17 30 48 55 55 54 50 47 42 41 38 36 33 29 25 20 16 15 11 14 10 9 11 6 6 7 6 7 11 14 18
66 64 61 62 57 54 54 54 53 48 39 33 24 18 14 13 16 23 33 49 58 58 54 50 47 45 42 39 35 32 25 21 19 19 19 17 15 11 12 13 12 11 12 12 13 15 16
Wind_Direction
357 355 355 354 349 347 342 335 324 316 307 287 275 263 255 249 244 242 240 237 240 240 238 233 231 233 232 233 233 232 232 234 235 233 231 233 234 235 240 243 247 249 249 249 253 256 257
356 355 354 352 351 347 342 336 329 318 307 295 275 266 260 252 249 244 240 238 238 238 236 235 232 229 231 233 233 233 234 233 233 234 235 235 236 238 240 242 246 250 251 253 252 251 256
356 355 354 351 351 346 342 337 329 321 307 291 279 268 261 257 252 246 241 236 235 235 235 236 230 229 227 230 231 232 234 232 232 234 235 238 238 238 243 244 247 250 253 256 254 253 250
355 354 353 348 351 344 342 337 330 321 310 292 274 264 258 256 253 250 243 238 235 234 232 230 230 228 226 227 230 231 231 232 233 232 235 236 239 239 241 243 245 249 252 254 254 253 251
354 354 351 348 349 344 341 337 329 318 308 297 281 265 256 251 250 248 245 241 237 233 231 230 227 229 225 226 227 232 233 232 233 234 235 235 237 239 240 242 245 248 250 253 254 256 256
354 354 350 348 348 343 340 337 329 317 304 292 284 280 262 245 244 244 243 239 238 234 231 229 226 226 227 228 228 229 232 231 231 232 234 235 236 238 240 241 243 246 248 251 253 254 255
353 352 349 348 347 342 340 336 330 322 312 301 288 279 278 260 245 238 237 237 235 237 234 229 226 224 226 226 227 230 232 231 232 231 232 233 235 238 239 240 243 245 246 249 252 253 254
352 350 348 348 346 342 341 337 334 328 320 311 297 284 273 263 248 237 232 233 232 228 232 227 225 224 225 228 230 231 231 233 234 235 232 232 233 236 238 240 241 244 246 249 251 253 254
351 349 347 348 346 342 340 337 335 330 323 314 302 290 273 258 246 236 224 226 224 224 229 232 230 225 225 227 228 230 232 234 234 233 236 233 233 235 237 240 243 245 249 251 252 254 255
350 348 347 348 346 342 340 339 337 332 325 315 305 296 276 255 240 227 219 219 218 222 223 228 225 223 224 225 226 228 229 231 231 233 231 230 232 234 237 240 243 247 249 251 253 254 256
348 348 346 346 346 343 341 340 338 333 326 317 309 299 276 249 229 215 215 212 213 218 216 221 219 218 220 220 223 224 226 227 228 229 228 229 232 234 236 241 244 247 251 253 255 257 258
347 347 345 345 346 344 343 340 339 336 328 324 317 301 266 231 218 208 206 207 209 214 211 214 210 210 212 212 216 219 222 224 225 225 227 229 233 236 239 243 247 250 252 254 256 259 261
344 345 345 345 346 345 344 342 341 339 331 330 325 298 251 223 206 201 200 201 208 209 207 209 204 203 203 206 211 214 216 219 223 226 229 230 234 237 241 245 248 251 254 256 260 262 264
342 343 344 345 346 346 345 345 345 342 337 337 332 307 253 206 197 198 197 202 202 198 205 204 199 198 198 203 206 210 213 220 223 225 229 232 237 240 243 246 249 252 255 258 260 265 265
340 342 344 345 346 347 347 348 347 345 346 346 344 332 203 194 192 195 199 196 191 191 200 197 195 193 195 200 206 211 219 226 230 232 236 237 238 241 244 247 251 254 261 265 264 267 267
338 341 344 345 347 348 348 352 351 348 353 354 2 31 151 184 190 192 187 180 183 192 195 190 190 190 194 201 208 216 226 234 236 233 230 231 234 239 243 248 255 262 267 271 274 273 274
337 340 344 346 347 348 349 354 353 350 359 0 14 36 122 173 179 174 176 178 184 191 191 186 187 190 196 203 208 222 229 219 208 205 213 225 235 251 252 266 272 273 272 275 278 281 281
337 339 344 346 347 349 351 355 356 354 4 5 15 55 121 164 177 165 176 177 182 186 186 183 184 189 194 201 208 210 197 190 192 197 211 223 237 252 268 272 277 282 286 287 286 282 286
336 338 343 347 347 350 352 355 358 357 9 7 22 83 126 140 164 172 171 176 181 185 184 183 184 188 193 198 197 193 190 185 186 195 210 231 250 266 275 286 293 289 290 294 288 294 299
336 337 343 347 348 351 353 357 359 1 12 10 11 89 141 141 160 167 173 177 180 179 182 185 185 188 193 195 191 191 192 194 202 215 233 249 266 273 285 290 287 26 26 6 354 350 343
336 336 340 347 348 353 355 360 359 3 14 19 19 61 155 157 172 175 179 179 177 179 184 187 187 189 196 200 199 203 204 210 222 237 251 262 271 275 272 248 45 19 22 20 22 16 14
335 336 339 345 348 355 357 359 2 3 14 28 15 77 167 173 175 180 184 182 177 182 187 190 191 194 198 201 206 215 216 226 236 243 249 265 263 255 189 59 98 56 33 27 27 27 38
335 336 337 342 346 356 1 358 4 8 8 26 21 15 182 181 181 187 184 181 184 186 191 194 196 200 203 206 211 217 226 232 229 238 264 258 221 206 135 101 53 50 34 22 33 35 35
336 337 336 340 342 352 2 3 2 10 11 13 27 26 193 193 187 191 188 187 187 186 192 195 198 202 204 209 215 221 224 217 224 245 248 259 192 186 154 164 47 44 35 30 30 34 42
336 337 335 338 343 348 359 5 0 5 9 7 15 55 210 192 193 193 195 195 190 190 193 194 192 198 204 210 214 213 209 212 224 240 220 201 190 214 230 180 152 46 17 33 32 37 36
335 335 334 336 343 345 354 359 1 360 5 7 358 0 211 213 200 198 202 202 195 194 195 195 193 196 199 198 199 202 206 212 229 223 220 219 237 209 169 157 157 103 34 23 36 36 31
333 334 333 336 342 344 349 354 354 355 359 1 353 329 234 218 217 208 207 206 202 198 198 199 197 200 199 199 200 203 207 218 227 222 215 232 182 172 164 156 152 133 63 29 37 25 23
332 332 332 335 342 345 344 350 348 349 349 354 349 325 279 220 218 220 213 210 209 204 200 202 202 206 205 204 205 207 212 218 228 214 211 217 202 212 206 222 272 300 310 14 359 354 1
330 329 332 332 340 344 342 344 343 341 340 342 345 318 291 247 220 221 223 216 212 209 206 203 205 210 211 211 212 214 212 220 218 209 217 234 240 243 217 233 249 288 298 311 308 310 325
Height
10610 10592 10577 10560 10545 10531 10518 10508 10495 10483 10479 10475 10470 10468 10467 10467 10470 10474 10478 10484 10491 10500 10512 10520 10529 10539 10548 10558 10568 10575 10587 10597 10605 10616 10622 10628 10635 10641 10647 10653 10659 10661 10665 10672 10673 10677 10680
10599 10583 10567 10552 10537 10523 10507 10493 10485 10475 10464 10459 10454 10451 10451 10452 10453 10456 10459 10464 10471 10479 10491 10501 10511 10521 10532 10543 10553 10562 10572 10582 10590 10601 10607 10615 10621 10628 10633 10641 10644 10651 10653 10656 10663 10664 10668
10589 10572 10554 10536 10523 10510 10496 10483 10469 10461 10454 10443 10438 10434 10433 10432 10433 10437 10441 10447 10452 10461 10470 10481 10493 10504 10517 10525 10534 10546 10555 10565 10573 10583 10592 10600 10607 10614 10622 10626 10634 10637 10639 10643 10649 10653 10659
10581 10564 10546 10532 10514 10500 10483 10467 10455 10443 10434 10429 10421 10416 10415 10414 10414 10417 10423 10429 10434 10442 10450 10460 10472 10485 10500 10510 10519 10529 10537 10548 10558 10567 10578 10586 10595 10602 10607 10615 10617 10623 10628 10631 10637 10639 10645
10572 10553 10536 10520 10502 10487 10473 10459 10445 10429 10414 10405 10401 10398 10394 10395 10396 10397 10404 10412 10418 10425 10433 10442 10454 10468 10482 10493 10503 10514 10523 10534 10543 10553 10564 10572 10579 10588 10594 10598 10605 10610 10616 10619 10624 10625 10633
10562 10542 10527 10508 10488 10471 10454 10440 10426 10412 10399 10386 10372 10365 10371 10372 10375 10379 10385 10394 10398 10406 10416 10429 10441 10450 10466 10479 10487 10498 10509 10520 10529 10537 10548 10557 10564 10573 10579 10585 10589 10596 10604 10606 10609 10612 10615
10551 10534 10517 10495 10473 10457 10438 10420 10405 10389 10374 10362 10350 10341 10339 10349 10355 10359 10366 10371 10380 10398 10407 10412 10418 10432 10442 10457 10471 10483 10494 10507 10517 10526 10534 10543 10553 10559 10559 10571 10578 10583 10587 10590 10592 10596 10601
10541 10522 10503 10483 10459 10438 10416 10395 10378 10362 10347 10335 10325 10321 10318 10321 10330 10340 10347 10355 10375 10384 10379 10392 10402 10420 10430 10444 10457 10470 10482 10495 10504 10510 10520 10529 10539 10539 10550 10557 10564 10568 10572 10575 10578 10582 10589
10531 10512 10494 10473 10447 10422 10400 10380 10362 10342 10326 10313 10303 10298 10298 10301 10308 10318 10330 10341 10357 10365 10375 10387 10397 10410 10421 10434 10446 10456 10468 10480 10489 10498 10506 10513 10522 10530 10537 10545 10552 10555 10560 10561 10566 10570 10574
10522 10504 10484 10461 10438 10411 10388 10364 10344 10326 10309 10295 10286 10281 10280 10285 10292 10302 10313 10325 10340 10355 10366 10375 10387 10399 10410 10423 10433 10445 10457 10468 10479 10484 10493 10504 10509 10518 10527 10534 10537 10544 10547 10549 10553 10555 10558
10512 10495 10475 10452 10428 10401 10375 10350 10330 10312 10296 10284 10274 10268 10267 10271 10279 10288 10301 10316 10329 10341 10354 10365 10381 10393 10403 10416 10425 10435 10445 10457 10467 10475 10484 10494 10499 10508 10515 10518 10526 10531 10536 10536 10537 10538 10544
10502 10487 10466 10444 10418 10391 10367 10341 10320 10303 10287 10275 10266 10259 10258 10261 10268 10280 10289 10303 10316 10326 10349 10365 10375 10385 10396 10409 10418 10427 10439 10449 10456 10465 10475 10485 10492 10497 10504 10509 10516 10520 10523 10520 10520 10523 10529
10494 10480 10458 10435 10410 10384 10359 10335 10314 10296 10282 10269 10260 10254 10251 10255 10265 10273 10284 10293 10304 10332 10352 10360 10370 10378 10390 10401 10412 10424 10433 10441 10450 10460 10469 10477 10483 10490 10497 10501 10504 10509 10507 10506 10507 10507 10511
10488 10473 10452 10427 10402 10380 10354 10330 10309 10292 10279 10266 10257 10251 10252 10257 10262 10271 10280 10291 10317 10340 10349 10356 10365 10376 10388 10400 10412 10422 10430 10438 10445 10454 10459 10471 10477 10482 10483 10488 10492 10493 10496 10492 10491 10490 10491
10483 10466 10444 10421 10396 10375 10351 10329 10308 10292 10278 10266 10258 10253 10254 10258 10264 10271 10283 10302 10322 10334 10343 10353 10364 10376 10388 10400 10410 10417 10425 10432 10441 10449 10456 10462 10467 10469 10474 10478 10481 10487 10486 10481 10475 10471 10465
10477 10460 10439 10416 10391 10368 10345 10327 10309 10293 10280 10270 10261 10258 10257 10262 10267 10277 10292 10308 10323 10331 10341 10353 10365 10375 10386 10396 10406 10414 10422 10428 10434 10440 10446 10450 10457 10461 10466 10469 10473 10476 10474 10466 10458 10454 10442
10472 10455 10436 10413 10388 10367 10345 10327 10309 10295 10283 10274 10266 10264 10263 10268 10274 10283 10296 10310 10322 10334 10344 10354 10365 10377 10387 10397 10406 10413 10418 10422 10428 10434 10440 10446 10452 10454 10462 10465 10465 10463 10458 10453 10443 10434 10419
10467 10448 10433 10412 10388 10368 10345 10328 10313 10299 10287 10279 10273 10270 10270 10275 10279 10287 10300 10314 10326 10334 10344 10356 10367 10378 10388 10397 10404 10410 10415 10419 10425 10431 10438 10443 10447 10453 10457 10457 10456 10451 10443 10436 10426 10415 10404
10464 10443 10431 10412 10390 10369 10348 10330 10317 10304 10294 10286 10281 10278 10278 10284 10289 10296 10307 10318 10329 10338 10347 10358 10368 10379 10389 10396 10402 10408 10413 10419 10425 10430 10436 10441 10447 10450 10449 10449 10446 10441 10434 10424 10414 10401 10388
10461 10438 10428 10412 10392 10371 10351 10335 10322 10310 10300 10294 10288 10285 10285 10291 10299 10307 10314 10324 10333 10342 10352 10360 10370 10380 10388 10394 10401 10407 10413 10418 10423 10429 10434 10438 10441 10443 10444 10442 10439 10433 10426 10418 10404 10393 10380
10457 10434 10421 10413 10394 10372 10353 10340 10326 10315 10306 10300 10296 10295 10294 10297 10306 10313 10320 10327 10336 10345 10352 10360 10369 10379 10386 10393 10400 10406 10412 10417 10422 10426 10430 10434 10436 10437 10438 10437 10433 10429 10423 10416 10404 10391 10375
10453 10432 10415 10410 10397 10377 10357 10345 10333 10320 10313 10308 10305 10304 10304 10306 10311 10317 10324 10333 10341 10347 10354 10362 10371 10379 10387 10394 10400 10405 10410 10415 10420 10424 10428 10431 10432 10433 10434 10433 10431 10426 10421 10414 10403 10392 10377
10448 10430 10411 10400 10394 10385 10366 10349 10340 10327 10318 10314 10312 10310 10310 10313 10318 10321 10328 10337 10343 10349 10356 10362 10369 10377 10386 10392 10397 10403 10407 10413 10417 10421 10424 10426 10428 10428 10430 10431 10427 10425 10420 10413 10405 10394 10384
10445 10427 10408 10395 10383 10379 10369 10354 10342 10332 10326 10319 10316 10316 10317 10318 10322 10327 10333 10338 10345 10351 10357 10363 10370 10376 10382 10388 10394 10400 10406 10411 10414 10417 10420 10423 10424 10426 10427 10427 10426 10424 10421 10415 10407 10398 10385
10441 10426 10408 10394 10380 10369 10363 10355 10346 10336 10328 10324 10320 10320 10320 10321 10326 10328 10332 10335 10342 10349 10356 10363 10368 10373 10379 10386 10393 10399 10404 10408 10412 10414 10416 10419 10421 10422 10423 10425 10424 10425 10420 10415 10408 10401 10393
10437 10424 10408 10391 10382 10368 10359 10352 10349 10340 10332 10326 10322 10319 10321 10322 10324 10327 10330 10335 10342 10349 10355 10361 10367 10371 10378 10385 10390 10396 10402 10406 10409 10411 10413 10417 10418 10420 10422 10422 10424 10422 10419 10416 10411 10406 10398
10434 10421 10407 10392 10378 10368 10359 10351 10345 10340 10334 10327 10325 10322 10319 10321 10323 10325 10327 10332 10339 10346 10353 10359 10366 10370 10376 10383 10389 10395 10400 10403 10406 10409 10412 10414 10417 10418 10420 10421 10421 10420 10418 10416 10414 10409 10403
10428 10417 10404 10391 10379 10366 10354 10348 10344 10338 10333 10328 10324 10322 10319 10317 10319 10322 10325 10329 10336 10343 10350 10356 10363 10368 10374 10380 10386 10392 10396 10400 10403 10405 10409 10412 10414 10416 10418 10419 10419 10418 10417 10414 10412 10409 10406
10421 10410 10400 10386 10376 10365 10355 10345 10340 10335 10330 10325 10321 10319 10316 10314 10314 10316 10320 10324 10330 10337 10345 10351 10358 10363 10370 10377 10383 10388 10393 10396 10399 10402 10406 10409 10411 10413 10415 10417 10417 10417 10416 10414 10412 10410 10408